Location: Zagreb
(45.8000°N, 16.0000°E)
Time: 01:54:38
(UTC+02:00)

Transit 2A Rocket - Pass Details

Date: 25 January 2022
Orbit: 592 x 909 km, 66.7° (Epoch: 26 May)

Event Time Altitude Azimuth Distance (km) Brightness Sun altitude
Rises 02:59:06 0° 328° (NNW) 3,467 - -45.9°
Reaches altitude 10° 03:01:44 10° 333° (NNW) 2,488 - -45.4°
Maximum altitude 03:07:22 56° 51° (NE) 955 - -44.5°
Drops below altitude 10° 03:12:31 10° 130° (SE) 2,271 - -43.7°
Sets 03:14:50 0° 135° (SE) 3,140 - -43.3°
